Change the Weather History Date:

Friday, April 26, 2013

  Actual Average (KCKC) Record (KCKC)
Temperature  
Mean Temperature 35 °F -  
Max Temperature 43 °F 48 °F 60 °F (2001)
Min Temperature 28 °F 29 °F 19 °F (2002)
Degree Days  
Heating Degree Days 30    
Moisture  
Dew Point 31 °F    
Average Humidity 81    
Maximum Humidity 89    
Minimum Humidity 73    
Precipitation  
Precipitation 0.00 in - - ()
Sea Level Pressure  
Sea Level Pressure 30.11 in    
Wind  
Wind Speed 2 mph (ENE)    
Max Wind Speed 8 mph    
Max Gust Speed -    
Averages and records for this station are not official NWS values.
T = Trace of Precipitation, MM = Missing Value Source: NWS Daily Summary

Daily Weather History Graph

Daily Weather History Graph

Search for Another Location

Airport or City:

Trip Planner

Search our weather history database for the weather conditions in past years. The results will help you decide how hot, cold, wet, or windy it might be!

Date:

Astronomy

Apr. 26, 2013 Rise Set
Actual Time 5:51 AM CDT 8:07 PM CDT
Civil Twilight 5:18 AM CDT 8:41 PM CDT
Nautical Twilight 4:35 AM CDT 9:23 PM CDT
Astronomical Twilight 3:48 AM CDT 10:11 PM CDT
Moon 9:36 PM CDT (4/26) 6:15 AM CDT (4/26)
Length of Visible Light 15h 23m
Length of Day
14h 15m
Full, 99% of the Moon is Illuminated
Apr 26
Full
May 2
Last Quarter
May 9
New
May 17
First Quarter
May 24
Full

Hourly Weather History & Observations

Time (CDT) Temp. Windchill Dew Point Humidity Pressure Visibility Wind Dir Wind Speed Gust Speed Precip Events Conditions
12:56 AM 30.9 °F - 25.0 °F 79% 30.15 in - Calm Calm - N/A   Unknown
1:56 AM 30.0 °F 26.5 °F 26.1 °F 85% 30.14 in - North 3.5 mph - N/A   Unknown
2:56 AM 28.9 °F - 25.0 °F 85% 30.14 in - Calm Calm - N/A   Unknown
3:56 AM 30.9 °F - 27.0 °F 85% 30.12 in - Calm Calm - N/A   Unknown
4:56 AM 32.0 °F 28.7 °F 27.0 °F 82% 30.11 in - NNE 3.5 mph - N/A   Unknown
5:56 AM 33.1 °F - 28.9 °F 85% 30.10 in - Calm Calm - N/A   Unknown
6:56 AM 35.1 °F - 30.9 °F 85% 30.10 in - Calm Calm - N/A   Unknown
7:56 AM 37.0 °F 34.5 °F 30.0 °F 76% 30.11 in - ENE 3.5 mph - N/A   Unknown
8:56 AM 37.9 °F 34.4 °F 30.9 °F 76% 30.10 in - ENE 4.6 mph - N/A   Unknown
9:56 AM 39.0 °F 36.8 °F 32.0 °F 76% 30.09 in - ENE 3.5 mph - N/A   Unknown
10:56 AM 39.0 °F 34.0 °F 32.0 °F 76% 30.09 in - East 6.9 mph - N/A   Unknown
11:56 AM 39.0 °F 33.4 °F 32.0 °F 76% 30.07 in - ENE 8.1 mph - N/A   Unknown
12:56 PM 42.1 °F 37.7 °F 34.0 °F 73% 30.07 in - East 6.9 mph - N/A   Unknown
1:56 PM 42.1 °F 39.2 °F 34.0 °F 73% 30.07 in - East 4.6 mph - N/A   Unknown
2:56 PM 39.9 °F 36.7 °F 34.0 °F 79% 30.08 in - East 4.6 mph - N/A   Unknown
3:56 PM 42.1 °F 40.2 °F 35.1 °F 76% 30.08 in - East 3.5 mph - N/A   Unknown
4:56 PM 42.1 °F - 35.1 °F 76% 30.09 in - Calm Calm - N/A   Unknown
5:56 PM 41.0 °F 39.0 °F 34.0 °F 76% 30.09 in - ENE 3.5 mph - N/A   Unknown
6:56 PM 39.0 °F 36.8 °F 34.0 °F 82% 30.10 in - ENE 3.5 mph - N/A   Unknown
7:56 PM 39.0 °F 36.8 °F 34.0 °F 82% 30.12 in - ENE 3.5 mph - N/A   Unknown
8:56 PM 36.0 °F - 32.0 °F 86% 30.15 in - Calm Calm - N/A   Unknown
9:56 PM 34.0 °F - 30.0 °F 85% 30.16 in - Calm Calm - N/A   Unknown
10:56 PM 34.0 °F 29.8 °F 30.9 °F 89% 30.16 in - NNW 4.6 mph - N/A   Unknown
11:56 PM 35.1 °F - 32.0 °F 89% 30.15 in - Calm Calm - N/A   Unknown